TimeMST,TemperatureF,Dew PointF,Humidity,Sea Level PressureIn,VisibilityMPH,Wind Direction,Wind SpeedMPH,Gust SpeedMPH,PrecipitationIn,Events,Conditions,WindDirDegrees,DateUTC
12:53 AM,12.9,-0.0,56,30.09,10.0,WSW,12.7,-,N/A,,Clear,240,2012-12-10 07:53:00
1:53 AM,12.0,-0.0,59,30.07,10.0,SSW,8.1,-,N/A,,Clear,200,2012-12-10 08:53:00
2:53 AM,15.1,-0.0,51,30.05,10.0,SW,6.9,-,N/A,,Clear,230,2012-12-10 09:53:00
3:53 AM,16.0,3.0,57,30.02,10.0,North,4.6,-,N/A,,Clear,360,2012-12-10 10:53:00
4:53 AM,15.1,3.0,59,30.04,10.0,NNW,3.5,-,N/A,,Clear,330,2012-12-10 11:53:00
5:53 AM,14.0,3.0,62,30.07,10.0,WSW,10.4,-,N/A,,Clear,240,2012-12-10 12:53:00
6:53 AM,19.0,6.1,57,30.05,10.0,West,15.0,-,N/A,,Clear,260,2012-12-10 13:53:00
7:53 AM,18.0,6.1,60,30.04,10.0,WSW,11.5,-,N/A,,Clear,250,2012-12-10 14:53:00
8:53 AM,21.0,7.0,55,30.04,10.0,SW,12.7,-,N/A,,Clear,220,2012-12-10 15:53:00
9:53 AM,24.1,8.1,51,30.02,10.0,WSW,4.6,-,N/A,,Clear,250,2012-12-10 16:53:00
10:53 AM,23.0,8.1,53,30.04,10.0,NNW,5.8,-,N/A,,Scattered Clouds,340,2012-12-10 17:53:00
11:53 AM,30.0,8.1,40,29.99,10.0,North,5.8,-,N/A,,Partly Cloudy,350,2012-12-10 18:53:00
12:53 PM,28.0,10.9,49,29.98,10.0,NE,10.4,-,N/A,,Scattered Clouds,50,2012-12-10 19:53:00
1:53 PM,25.0,8.1,49,30.00,10.0,NE,11.5,-,N/A,,Mostly Cloudy,50,2012-12-10 20:53:00
2:53 PM,27.0,9.0,47,29.99,10.0,ENE,6.9,-,N/A,,Clear,70,2012-12-10 21:53:00
3:53 PM,27.0,12.9,56,30.02,10.0,North,12.7,-,N/A,,Clear,10,2012-12-10 22:53:00
4:53 PM,24.1,14.0,65,30.06,10.0,NNE,9.2,-,N/A,,Scattered Clouds,30,2012-12-10 23:53:00
5:53 PM,19.9,12.9,74,30.09,10.0,NNE,5.8,-,N/A,,Clear,20,2012-12-11 00:53:00
6:53 PM,18.0,12.0,78,30.10,10.0,WSW,5.8,-,N/A,,Partly Cloudy,240,2012-12-11 01:53:00
7:53 PM,17.1,10.9,77,30.10,10.0,West,4.6,-,N/A,,Partly Cloudy,270,2012-12-11 02:53:00
8:53 PM,19.0,10.9,71,30.09,10.0,South,6.9,-,N/A,,Partly Cloudy,180,2012-12-11 03:53:00
9:53 PM,17.1,10.0,74,30.06,10.0,SSE,9.2,-,N/A,,Clear,150,2012-12-11 04:53:00
10:53 PM,15.1,9.0,77,30.08,10.0,SSE,4.6,-,N/A,,Clear,160,2012-12-11 05:53:00
11:53 PM,12.9,7.0,77,30.05,10.0,WSW,11.5,-,N/A,,Clear,250,2012-12-11 06:53:00